Time,TemperatureF,DewpointF,PressureIn,WindDirection,WindDirectionDegrees,WindSpeedMPH,WindSpeedGustMPH,Humidity,HourlyPrecipIn,Conditions,Clouds,dailyrainin,SoftwareType,DateUTC
2013-02-18 00:00:00,12.2,6.1,30.08,South,180,2.2,-999.0,76,-99.99,,,0.00,Acu-Link.com,2013-02-18 05:00:00,
2013-02-18 00:20:00,14.7,7.0,30.08,ESE,112,2.2,-999.0,71,-99.99,,,0.00,Acu-Link.com,2013-02-18 05:20:00,
2013-02-18 00:40:00,15.4,7.1,30.08,ESE,112,2.7,-999.0,69,-99.99,,,0.00,Acu-Link.com,2013-02-18 05:40:00,
2013-02-18 01:02:00,15.4,7.1,30.08,SE,135,3.2,-999.0,69,-99.99,,,0.00,Acu-Link.com,2013-02-18 06:02:00,
2013-02-18 02:15:00,16.5,7.8,30.08,South,180,2.2,-999.0,68,-99.99,,,0.00,Acu-Link.com,2013-02-18 07:15:00,
2013-02-18 02:30:00,16.7,8.0,30.08,SSE,157,3.7,-999.0,68,-99.99,,,0.00,Acu-Link.com,2013-02-18 07:30:00,
2013-02-18 03:20:00,16.7,9.0,30.07,ESE,112,2.7,-999.0,71,-99.99,,,0.00,Acu-Link.com,2013-02-18 08:20:00,
2013-02-18 03:38:00,16.9,9.2,30.06,South,180,1.7,-999.0,71,-99.99,,,0.00,Acu-Link.com,2013-02-18 08:38:00,
2013-02-18 03:58:00,16.9,9.2,30.06,ESE,112,3.2,-999.0,71,-99.99,,,0.00,Acu-Link.com,2013-02-18 08:58:00,
2013-02-18 04:20:00,16.9,9.2,30.05,South,180,4.7,-999.0,71,-99.99,,,0.00,Acu-Link.com,2013-02-18 09:20:00,
2013-02-18 04:36:00,18.0,9.9,30.05,South,180,3.2,-999.0,70,-99.99,,,0.00,Acu-Link.com,2013-02-18 09:36:00,
2013-02-18 04:58:00,18.1,10.3,30.05,South,180,4.2,-999.0,71,-99.99,,,0.00,Acu-Link.com,2013-02-18 09:58:00,
2013-02-18 05:29:00,18.5,10.7,30.03,ESE,112,2.7,-999.0,71,-99.99,,,0.00,Acu-Link.com,2013-02-18 10:29:00,
2013-02-18 05:51:00,19.0,11.5,30.03,ESE,112,6.8,-999.0,72,-99.99,,,0.00,Acu-Link.com,2013-02-18 10:51:00,
2013-02-18 06:08:00,19.2,11.7,30.00,South,180,4.7,-999.0,72,-99.99,,,0.00,Acu-Link.com,2013-02-18 11:08:00,
2013-02-18 06:26:00,19.2,11.7,29.99,SE,135,5.3,-999.0,72,-99.99,,,0.00,Acu-Link.com,2013-02-18 11:26:00,
2013-02-18 06:45:00,19.8,12.3,29.99,East,90,5.3,-999.0,72,-99.99,,,0.00,Acu-Link.com,2013-02-18 11:45:00,
2013-02-18 07:06:00,20.3,12.4,29.98,SSE,157,9.9,-999.0,71,-99.99,,,0.00,Acu-Link.com,2013-02-18 12:06:00,
2013-02-18 07:25:00,20.3,12.4,29.96,SE,135,5.8,-999.0,71,-99.99,,,0.00,Acu-Link.com,2013-02-18 12:25:00,
2013-02-18 07:48:00,20.8,12.6,29.96,SSE,157,4.2,-999.0,70,-99.99,,,0.00,Acu-Link.com,2013-02-18 12:48:00,
2013-02-18 08:31:00,22.1,13.5,29.94,ESE,112,4.2,-999.0,69,-99.99,,,0.00,Acu-Link.com,2013-02-18 13:31:00,
2013-02-18 08:49:00,23.2,13.9,29.94,ESE,112,6.3,-999.0,67,-99.99,,,0.00,Acu-Link.com,2013-02-18 13:49:00,
2013-02-18 09:05:00,24.4,14.4,29.92,SSE,157,7.8,-999.0,65,-99.99,,,0.00,Acu-Link.com,2013-02-18 14:05:00,
2013-02-18 09:41:00,24.4,14.4,29.89,West,270,4.7,-999.0,65,-99.99,,,0.00,Acu-Link.com,2013-02-18 14:41:00,
2013-02-18 10:26:00,27.9,15.8,29.89,South,180,5.8,-999.0,60,-99.99,,,0.00,Acu-Link.com,2013-02-18 15:26:00,
2013-02-18 10:44:00,30.7,17.3,29.86,ESE,112,5.8,-999.0,57,-99.99,,,0.00,Acu-Link.com,2013-02-18 15:44:00,
2013-02-18 11:01:00,31.8,17.9,29.85,South,180,3.7,-999.0,56,-99.99,,,0.00,Acu-Link.com,2013-02-18 16:01:00,
2013-02-18 11:19:00,32.0,18.1,29.84,South,180,5.3,-999.0,56,-99.99,,,0.00,Acu-Link.com,2013-02-18 16:19:00,
2013-02-18 12:10:00,32.7,18.8,29.84,SSE,157,4.7,-999.0,56,-99.99,,,0.00,Acu-Link.com,2013-02-18 17:10:00,
2013-02-18 13:15:00,35.1,21.0,29.78,SSE,157,7.3,-999.0,56,-99.99,,,0.00,Acu-Link.com,2013-02-18 18:15:00,
2013-02-18 13:44:00,35.1,21.4,29.78,SSE,157,5.3,-999.0,57,-99.99,,,0.00,Acu-Link.com,2013-02-18 18:44:00,
2013-02-18 14:00:00,36.0,22.3,29.78,South,180,4.2,-999.0,57,-99.99,,,0.00,Acu-Link.com,2013-02-18 19:00:00,
2013-02-18 14:45:00,36.0,22.3,29.74,SSE,157,5.8,-999.0,57,-99.99,,,0.00,Acu-Link.com,2013-02-18 19:45:00,
2013-02-18 15:31:00,39.2,24.8,29.72,ESE,112,4.2,-999.0,56,-99.99,,,0.00,Acu-Link.com,2013-02-18 20:31:00,
2013-02-18 16:47:00,39.6,25.6,29.66,SW,225,3.7,-999.0,57,-99.99,,,0.00,Acu-Link.com,2013-02-18 21:47:00,
2013-02-18 17:43:00,39.7,27.8,29.64,SSE,157,3.2,-999.0,62,-99.99,,,0.00,Acu-Link.com,2013-02-18 22:43:00,
2013-02-18 18:00:00,39.7,28.5,29.63,SSE,157,4.7,-999.0,64,-99.99,,,0.00,Acu-Link.com,2013-02-18 23:00:00,
2013-02-18 18:15:00,39.6,29.2,29.62,South,180,5.3,-999.0,66,-99.99,,,0.00,Acu-Link.com,2013-02-18 23:15:00,
2013-02-18 18:30:00,39.9,29.8,29.63,ENE,67,4.7,-999.0,67,-99.99,,,0.00,Acu-Link.com,2013-02-18 23:30:00,
2013-02-18 18:46:00,39.9,30.2,29.62,SE,135,4.7,-999.0,68,-99.99,,,0.00,Acu-Link.com,2013-02-18 23:46:00,
2013-02-18 19:01:00,40.1,30.8,29.62,South,180,5.3,-999.0,69,-99.99,,,0.00,Acu-Link.com,2013-02-19 00:01:00,
2013-02-18 19:16:00,40.3,31.3,29.62,South,180,7.3,-999.0,70,-99.99,,,0.00,Acu-Link.com,2013-02-19 00:16:00,
2013-02-18 19:36:00,40.5,32.2,29.61,SSW,202,4.2,-999.0,72,-99.99,,,0.00,Acu-Link.com,2013-02-19 00:36:00,
2013-02-18 19:52:00,40.6,32.3,29.61,SSE,157,7.8,-999.0,72,-99.99,,,0.00,Acu-Link.com,2013-02-19 00:52:00,
2013-02-18 20:09:00,41.2,33.2,29.60,South,180,5.3,-999.0,73,-99.99,,,0.00,Acu-Link.com,2013-02-19 01:09:00,
2013-02-18 20:30:00,41.0,33.7,29.58,South,180,4.7,-999.0,75,-99.99,,,0.00,Acu-Link.com,2013-02-19 01:30:00,
2013-02-18 20:55:00,41.5,34.2,29.56,SSE,157,7.3,-999.0,75,-99.99,,,0.00,Acu-Link.com,2013-02-19 01:55:00,
2013-02-18 21:18:00,41.5,34.2,29.55,ESE,112,5.8,-999.0,75,-99.99,,,0.00,Acu-Link.com,2013-02-19 02:18:00,